Theta_e
308 308 307 307 307 307 307 309 307 309 309 308 309 309 309 307 306 306 308 310 312 314 306 310 312 314 310 308 306 302 307 305 306 306 307 307 309 308 306 310 311 312 312 314 322
307 307 308 306 307 307 309 307 308 309 308 306 307 307 305 304 303 305 304 306 309 313 310 309 312 310 309 309 307 308 306 306 304 304 306 308 309 308 310 311 313 313 316 319 326
310 307 306 306 306 305 307 308 306 306 308 309 306 304 304 303 301 300 314 317 313 309 315 310 311 309 310 309 308 307 308 304 307 306 308 309 309 307 309 311 310 313 315 319 321
308 308 309 308 306 305 305 307 306 307 306 308 309 305 304 304 297 310 312 316 316 314 314 311 311 311 309 310 307 309 307 306 307 308 309 310 306 309 307 310 307 306 314 318 320
308 308 308 308 308 307 306 305 304 304 304 306 308 307 305 305 303 302 304 313 316 315 311 308 312 309 311 308 308 309 308 307 307 307 307 307 309 309 308 306 305 304 307 317 319
307 308 308 307 307 308 307 308 305 304 305 306 309 308 304 302 302 302 304 311 314 314 311 307 310 308 309 308 308 308 308 309 309 309 308 310 308 309 308 307 306 306 307 306 314
307 307 307 308 306 307 308 306 307 306 305 306 307 307 306 304 304 303 306 305 305 309 307 306 306 309 308 310 307 309 310 309 307 308 309 308 309 307 308 308 308 306 305 305 308
306 305 306 306 307 306 307 307 306 305 304 305 305 305 306 306 306 305 304 303 305 309 310 308 305 304 307 307 307 310 310 311 307 308 309 309 307 306 305 306 307 306 306 306 306
304 304 304 304 305 306 306 307 307 306 305 305 305 304 305 305 304 306 306 303 307 310 311 310 306 305 306 306 308 306 309 309 309 306 309 308 309 307 304 304 306 305 304 304 304
302 303 304 304 304 304 306 307 306 306 305 305 305 304 303 305 304 304 303 303 309 308 310 308 305 306 303 306 313 308 309 306 308 306 307 308 308 306 306 305 305 305 304 304 304
301 302 302 303 304 303 304 307 307 307 305 304 304 302 303 303 303 303 303 306 308 308 311 309 312 310 307 304 304 305 307 307 306 305 307 306 306 306 306 304 304 304 305 305 304
300 300 301 302 303 303 304 307 306 303 306 303 301 302 303 303 304 303 303 304 307 309 306 310 312 308 305 304 304 305 307 307 306 305 306 306 306 304 305 306 305 305 305 305 306
300 300 300 300 301 302 304 305 306 302 302 303 302 302 302 302 303 302 302 303 305 306 308 307 305 305 306 305 306 305 306 305 306 305 304 303 304 303 302 303 303 304 305 305 306
299 299 300 300 300 301 303 303 303 301 306 303 303 301 302 301 302 302 302 304 305 306 304 306 304 305 306 307 306 309 303 304 306 306 306 302 303 300 300 300 301 302 302 303 303
298 298 299 299 299 301 301 301 303 299 306 303 301 301 301 302 301 302 303 304 304 304 304 304 303 305 307 306 305 306 304 304 305 306 306 305 306 301 301 301 300 300 299 300 301
298 298 298 299 298 298 299 302 300 301 306 303 300 301 303 302 301 302 304 304 301 304 304 302 302 303 303 303 305 303 304 305 303 305 309 304 305 301 299 302 301 302 303 303 301
297 297 297 297 297 298 299 299 302 303 301 303 302 301 302 302 303 302 305 307 306 306 306 305 305 303 302 305 304 305 306 308 307 308 305 301 302 302 299 300 300 301 301 300 299
297 297 297 297 296 297 297 299 300 299 302 300 301 302 302 302 303 304 303 306 305 300 303 306 306 304 302 304 306 307 305 305 304 308 305 302 305 304 301 301 300 300 300 299 298
296 296 297 296 296 296 297 298 300 297 302 302 301 302 302 302 302 303 303 303 305 300 301 303 302 301 302 302 304 307 309 302 303 294 303 304 303 302 301 303 302 302 300 299 298
296 295 294 296 296 296 296 298 300 300 302 302 301 301 300 302 302 302 302 301 302 302 299 300 302 300 302 302 302 304 304 307 304 302 303 300 304 302 302 302 302 301 300 299 298
295 294 294 295 295 295 295 294 298 298 301 303 302 300 298 302 300 301 302 300 301 302 299 298 299 301 302 303 304 304 304 304 302 303 302 299 298 297 299 300 299 300 300 298 298
291 294 292 295 296 294 293 293 296 297 300 302 302 300 298 300 299 300 300 299 300 302 304 301 302 300 300 298 299 302 303 303 303 303 302 301 298 298 297 299 300 300 297 297 297
293 292 292 294 293 293 285 288 293 295 297 299 301 301 299 300 298 300 299 298 299 302 303 303 302 301 297 300 295 296 302 303 304 304 304 304 301 299 298 298 298 298 297 297 297
291 292 293 294 288 290 281 283 289 295 294 294 299 300 299 300 296 298 300 298 298 301 303 302 292 296 298 298 298 299 299 302 303 306 305 306 304 302 301 300 298 297 296 296 296
291 290 289 293 290 288 289 287 291 291 294 297 300 301 301 298 296 293 299 299 298 301 301 295 292 291 292 298 298 299 300 300 299 302 302 301 299 300 299 298 298 296 296 296 297
290 289 289 284 290 291 290 286 291 291 294 295 298 299 300 296 297 296 299 299 301 299 298 295 286 285 290 296 297 299 300 300 301 300 296 298 300 299 296 295 294 294 294 294 293
288 290 288 289 289 292 291 289 293 292 295 294 296 298 301 297 297 298 298 299 299 301 295 290 288 285 286 285 293 292 296 298 298 298 298 300 300 295 295 295 294 293 293 292 291
Wind_Speed
14 15 13 13 14 13 14 12 12 16 16 15 16 17 17 16 18 19 7 8 4 3 2 2 4 5 4 3 3 3 2 4 6 8 5 2 4 2 1 1 1 2 2 2 11
17 16 16 15 14 15 13 14 10 9 12 13 15 14 12 13 15 17 20 17 14 6 4 5 4 6 2 2 1 3 4 9 5 4 4 3 3 1 1 1 2 1 3 5 13
21 21 19 19 17 16 18 15 15 14 11 11 10 9 8 7 4 5 4 8 15 18 9 4 7 4 3 3 4 4 6 4 4 4 2 2 2 1 3 3 6 4 3 6 9
25 25 25 22 22 18 14 17 12 14 14 12 10 7 6 1 5 1 4 5 5 18 11 8 4 6 5 6 4 3 6 4 2 3 3 2 5 3 3 3 4 4 2 6 8
25 26 25 25 24 23 19 17 18 21 21 14 13 8 3 1 8 5 5 2 6 11 11 6 5 5 6 5 5 4 4 5 6 3 3 3 4 3 7 8 4 5 2 6 6
26 26 26 26 26 26 22 20 19 17 16 16 12 10 5 5 7 8 5 2 4 7 8 7 6 6 4 4 6 4 4 4 3 2 4 3 3 3 8 3 6 6 10 8 8
22 24 24 25 24 26 26 24 21 18 15 16 11 11 5 12 7 0 3 1 6 2 4 9 5 5 6 3 4 2 3 3 5 4 5 2 8 10 14 0 5 6 7 7 7
19 20 21 22 24 25 26 25 22 20 17 18 13 7 7 4 18 18 20 18 9 5 4 6 8 4 3 2 4 4 1 2 1 7 5 11 17 7 7 7 11 10 8 7 9
20 19 19 20 20 22 25 26 25 20 17 16 11 7 7 6 7 19 19 7 8 5 6 5 6 4 3 6 2 4 3 4 5 10 3 8 4 4 2 7 9 7 7 7 8
23 19 20 19 19 20 23 24 25 22 17 13 8 4 7 5 8 6 10 16 5 6 3 3 3 4 2 5 12 6 4 4 4 0 2 5 9 9 3 3 6 7 7 7 9
22 21 21 19 20 19 19 10 6 5 15 7 7 4 1 7 6 5 7 11 6 4 10 3 6 14 14 8 2 6 4 5 3 1 2 6 7 9 15 5 7 10 11 9 9
23 22 21 22 19 18 19 10 11 7 6 17 5 15 7 6 4 4 13 7 7 11 8 4 22 8 7 8 5 4 5 4 3 2 0 5 12 10 12 10 9 13 11 12 9
23 22 20 20 18 23 23 21 19 15 5 9 19 8 12 9 5 7 12 5 6 11 17 8 1 11 8 5 9 5 11 4 2 3 1 5 11 6 8 6 6 7 12 8 14
22 20 19 20 13 18 14 25 17 8 8 10 15 10 7 7 7 13 19 6 6 13 8 10 6 7 4 11 9 11 7 6 4 3 4 1 8 5 3 7 4 9 9 12 8
25 22 21 20 5 7 5 21 12 10 6 13 9 11 15 14 7 10 21 4 8 7 7 8 10 10 7 7 8 5 8 10 6 5 2 5 3 6 3 6 10 8 8 7 7
26 25 23 24 22 23 8 17 17 5 8 7 6 11 15 18 2 4 6 2 5 6 3 4 1 7 8 5 11 7 6 5 4 4 7 10 10 4 5 7 7 2 2 2 5
26 26 25 26 16 22 15 4 7 8 7 8 7 14 20 17 12 9 20 13 9 10 11 10 5 1 4 6 3 5 11 4 3 5 9 7 8 17 6 5 5 5 5 4 6
26 25 27 28 26 19 16 6 12 9 6 3 10 16 16 16 16 12 21 15 11 4 9 10 7 10 5 6 8 11 11 6 9 7 3 7 8 6 8 12 7 6 4 4 5
25 26 24 27 26 23 5 13 7 4 8 11 16 18 8 12 10 12 14 23 15 8 7 8 5 3 4 4 9 11 11 5 4 3 3 5 7 7 5 5 5 2 5 7 8
20 13 13 28 30 17 7 19 5 4 9 11 10 12 10 20 8 12 15 16 14 11 2 6 3 2 5 3 2 8 8 4 1 4 4 4 4 5 1 5 2 3 7 5 5
16 4 15 30 28 6 10 4 4 7 3 6 3 6 8 17 12 21 22 4 22 20 8 6 4 1 8 9 11 2 4 3 3 5 6 2 5 6 9 6 6 2 2 6 7
4 6 11 36 10 3 5 7 5 4 7 6 4 2 9 22 13 14 14 9 19 19 24 5 3 4 6 2 2 11 11 10 7 5 4 8 8 1 7 6 4 2 6 7 6
4 5 14 23 10 5 1 3 5 10 4 5 3 6 3 13 4 4 5 9 13 17 21 10 5 4 3 1 4 4 4 9 4 1 10 7 6 4 4 3 3 4 8 7 5
4 4 5 7 1 11 6 4 4 7 9 11 7 6 3 12 1 8 8 2 11 13 17 16 3 7 9 3 6 3 4 8 8 7 10 9 11 17 15 15 8 6 7 10 11
4 4 3 5 5 8 9 10 12 4 7 13 10 11 13 6 4 3 5 4 4 16 9 7 6 4 2 5 4 4 6 6 6 11 6 12 7 13 11 2 3 5 8 9 10
4 4 3 2 10 13 16 7 14 15 7 8 10 14 17 9 9 13 10 5 10 8 4 2 1 4 1 2 4 2 5 8 7 4 3 8 11 15 4 2 4 5 8 10 12
1 4 5 8 6 10 10 11 18 13 8 19 20 10 16 17 10 13 5 11 14 17 6 6 6 4 3 2 7 4 12 10 6 6 8 10 10 5 2 4 4 8 8 10 12
Wind_Direction
276 271 275 275 274 276 275 290 269 267 269 275 282 291 300 311 312 304 265 254 266 277 206 183 151 140 137 107 109 148 106 214 211 161 233 191 200 211 175 201 266 186 81 65 148
265 271 253 269 268 266 275 276 279 288 274 265 269 278 297 312 317 287 274 261 247 239 216 174 152 140 116 157 163 141 166 216 207 203 221 179 189 219 99 165 260 253 83 119 152
263 259 260 260 257 265 261 264 258 278 296 274 281 287 300 326 341 245 339 293 243 217 216 192 157 138 157 141 195 170 207 217 225 229 242 212 258 236 156 227 224 217 153 151 170
268 266 253 256 248 252 252 257 258 262 283 283 265 274 297 334 225 144 7 357 198 190 184 157 132 149 167 189 179 190 234 198 273 213 167 193 321 288 207 229 138 98 117 163 184
270 267 260 255 249 243 248 245 260 263 256 277 265 238 225 315 254 258 333 46 164 175 180 152 148 144 180 187 133 203 229 186 261 291 305 320 266 266 272 254 239 286 275 193 210
273 266 262 260 255 244 241 238 244 248 258 257 260 235 189 222 257 272 290 156 122 179 183 165 188 189 172 183 179 209 213 231 228 210 229 229 259 128 265 234 254 262 257 247 228
270 270 263 258 256 250 242 238 232 236 255 246 244 232 212 231 243 271 252 252 329 265 164 199 182 172 146 177 205 151 276 296 212 209 222 128 276 210 236 193 268 265 269 270 247
268 269 269 261 257 252 244 242 232 231 240 225 229 233 249 254 242 259 247 271 263 240 226 188 178 121 162 131 40 155 161 239 252 167 234 152 249 236 246 199 242 243 251 262 270
268 267 266 266 263 254 245 239 231 223 237 227 230 201 257 183 202 238 244 205 202 209 198 160 146 151 95 117 56 3 194 201 304 196 142 196 256 262 181 186 236 251 269 267 275
264 266 263 262 264 259 250 235 230 216 225 216 225 141 234 197 190 211 209 196 158 148 133 136 76 157 150 161 212 183 194 226 208 295 212 254 255 294 281 189 247 268 270 266 273
257 257 260 255 251 254 249 226 199 196 181 197 174 222 12 164 144 187 171 152 126 135 192 194 200 208 189 201 107 141 165 178 221 70 298 245 265 264 279 261 239 255 271 261 250
257 257 254 253 252 249 244 222 216 163 163 210 224 218 153 138 148 182 162 155 177 189 132 164 225 186 154 167 155 153 166 199 283 13 242 312 284 245 258 258 225 236 245 254 268
250 254 252 251 250 242 232 234 217 174 162 202 206 204 206 172 188 200 166 159 178 185 184 194 233 160 145 159 183 200 212 159 174 339 32 322 287 235 253 256 249 244 241 238 242
249 248 250 245 250 237 232 237 233 187 221 177 195 219 191 135 227 188 180 147 182 200 180 225 207 153 158 195 167 217 167 155 135 71 236 41 282 288 269 286 239 257 239 244 244
245 240 239 229 205 198 184 222 195 159 254 166 160 180 168 180 130 209 172 131 171 172 161 204 171 150 182 189 165 206 149 171 157 176 25 223 292 277 274 280 269 264 260 259 246
242 241 233 231 234 238 256 167 139 201 224 171 136 168 155 194 125 92 143 143 148 156 197 162 26 169 176 147 164 134 95 76 80 110 240 216 196 234 194 205 256 102 229 49 20
237 238 230 224 216 227 220 200 203 214 127 153 176 171 173 182 173 164 183 174 167 172 194 189 185 196 135 110 142 155 145 128 173 190 231 173 170 250 254 247 232 251 253 14 339
239 237 233 224 217 203 201 230 228 212 176 163 150 157 183 160 196 166 178 192 209 140 156 176 188 172 193 188 175 183 180 165 183 188 213 151 215 246 225 237 230 285 312 343 333
233 237 229 216 209 193 200 230 214 199 147 151 141 166 170 180 170 174 189 201 189 181 145 170 235 106 149 154 147 186 212 160 103 53 103 202 280 298 247 262 243 280 55 13 5
220 216 236 202 201 182 219 231 202 244 130 189 154 177 168 178 155 172 174 197 203 184 151 188 137 174 178 118 211 184 157 155 113 164 229 234 265 232 180 220 233 85 28 1 337
225 223 223 200 187 199 223 194 195 248 172 177 226 149 183 177 182 182 186 199 183 182 150 143 107 33 147 211 188 150 149 195 149 169 197 197 247 209 194 188 168 163 275 304 316
165 234 173 165 190 168 194 163 196 298 186 223 176 194 169 177 175 181 186 195 186 161 189 151 108 146 208 189 238 209 205 192 200 212 243 254 244 270 154 145 145 223 284 281 284
205 212 195 172 191 181 33 176 171 231 279 223 228 158 214 173 166 140 163 189 166 164 171 162 166 138 11 323 5 171 186 211 252 66 219 217 252 244 321 323 277 299 310 298 288
149 214 200 169 112 172 133 202 189 197 233 218 252 194 198 180 330 177 156 143 181 161 168 162 143 174 195 171 137 178 171 189 191 232 244 246 273 281 286 293 326 333 347 349 344
145 203 179 162 163 171 178 172 206 206 212 183 231 179 176 152 123 157 125 115 92 174 167 132 169 108 177 138 115 133 148 156 179 215 205 252 245 266 268 58 3 12 353 349 342
153 149 79 175 149 183 186 207 190 217 181 209 232 190 199 178 182 179 147 158 169 185 129 117 166 105 151 356 77 111 189 191 206 225 240 243 268 258 81 29 27 16 3 347 340
49 69 112 179 153 176 180 185 202 207 230 222 209 233 198 228 190 186 151 144 150 163 136 122 130 87 234 340 90 335 225 209 197 206 204 226 239 52 37 29 27 12 356 342 334